GW6453 Weather Reports


Display with metric or nautical units.
time (UTC)temp
F
wind
direction
speed
MPH
gust
MPH
rain 1hr
in
rain 24hr
in
rain mn
in
humidity
%
barometer
mb
20260502170232 57 131 2.0 2.0 0.00 0.00 0.00 71 1013.0
20260502164233 57 66 3.0 10.0 0.00 0.00 0.00 72 1013.0
20260502163732 57 138 2.0 4.0 0.00 0.00 0.00 73 1013.0
20260502163232 57 39 1.0 3.0 0.00 0.00 0.00 73 1014.0
20260502162732 57 80 2.0 4.0 0.00 0.00 0.00 73 1014.0
20260502162232 57 135 0.0 2.0 0.00 0.00 0.00 73 1014.0
20260502161732 57 76 1.0 3.0 0.00 0.00 0.00 73 1014.0
20260502161232 57 279 1.0 2.0 0.00 0.00 0.00 74 1014.0
20260502160731 56 47 0.0 2.0 0.00 0.00 0.00 76 1014.0
20260502160232 56 74 2.0 4.0 0.00 0.00 0.00 75 1014.0
20260502152232 56 84 3.0 5.0 0.00 0.00 0.00 74 1014.0
20260502151731 56 345 2.0 4.0 0.00 0.00 0.00 75 1014.0
20260502151231 56 189 0.0 1.0 0.00 0.00 0.00 75 1014.0
20260502150732 57 71 3.0 5.0 0.00 0.00 0.00 73 1014.0
20260502150232 56 254 0.0 1.0 0.00 0.00 0.00 74 1014.0
20260502130732 55 76 0.0 4.0 0.00 0.00 0.00 70 1013.0
20260502130232 55 297 0.0 2.0 0.00 0.00 0.00 71 1013.0
20260502123733 55 51 0.0 2.0 0.00 0.00 0.00 71 1013.0
20260502123234 55 35 2.0 5.0 0.00 0.00 0.00 72 1013.0
20260502122732 55 107 2.0 3.0 0.00 0.00 0.00 72 1013.0
20260502122232 55 226 0.0 2.0 0.00 0.00 0.00 73 1013.0
20260502121731 55 283 1.0 3.0 0.00 0.00 0.00 73 1013.0
20260502121232 55 59 3.0 4.0 0.00 0.00 0.00 73 1013.0
20260502120731 55 250 0.0 3.0 0.00 0.00 0.00 74 1013.0
20260502120231 55 293 1.0 3.0 0.00 0.00 0.00 74 1013.0
20260502115733 55 78 1.0 3.0 0.00 0.00 0.00 74 1013.0
20260502115232 54 104 0.0 2.0 0.00 0.00 0.00 75 1013.0
20260502114731 54 42 0.0 2.0 0.00 0.00 0.00 74 1013.0
20260502114232 54 29 0.0 1.0 0.00 0.00 0.00 75 1013.0
20260502113733 54 72 1.0 2.0 0.00 0.00 0.00 74 1013.0
20260502113231 54 0 0.0 0.0 0.00 0.00 0.00 74 1013.0
20260502112732 54 73 1.0 3.0 0.00 0.00 0.00 75 1013.0
20260502112231 54 70 1.0 4.0 0.00 0.00 0.00 75 1013.0
20260502111731 54 209 1.0 5.0 0.00 0.00 0.00 76 1013.0
20260502111231 54 115 2.0 5.0 0.00 0.00 0.00 76 1013.0
20260502110732 54 52 1.0 2.0 0.00 0.00 0.00 76 1013.0
20260502110232 54 0 0.0 0.0 0.00 0.00 0.00 78 1013.0
20260502105732 54 348 0.0 2.0 0.00 0.00 0.00 77 1013.0
20260502105232 55 107 0.0 1.0 0.00 0.00 0.00 77 1013.0
20260502104731 55 247 2.0 4.0 0.00 0.00 0.00 77 1013.0
20260502104231 55 190 0.0 2.0 0.00 0.00 0.00 75 1013.0
20260502103732 55 49 0.0 2.0 0.00 0.00 0.00 76 1013.0
20260502103231 54 253 1.0 3.0 0.00 0.00 0.00 77 1013.0
20260502102732 54 96 0.0 1.0 0.00 0.00 0.00 79 1013.0
20260502102231 54 29 0.0 2.0 0.00 0.00 0.00 80 1013.0
20260502101731 54 0 0.0 0.0 0.00 0.00 0.00 81 1013.0
20260502101232 54 245 2.0 4.0 0.00 0.00 0.00 81 1013.0
20260502100731 54 182 1.0 2.0 0.00 0.00 0.00 82 1013.0
20260502100232 54 126 0.0 2.0 0.00 0.00 0.00 83 1013.0
20260502091233 53 0 0.0 0.0 0.00 0.00 0.00 86 1013.0
20260502090731 53 258 0.0 2.0 0.00 0.00 0.00 86 1013.0
20260502090234 53 0 0.0 0.0 0.00 0.00 0.00 86 1013.0
20260502071231 53 0 0.0 0.0 0.00 0.00 0.00 86 1013.0
20260502070731 53 288 0.0 0.0 0.00 0.00 0.00 86 1013.0
20260502070232 53 0 0.0 0.0 0.00 0.00 0.00 86 1012.0
20260502065731 53 303 0.0 1.0 0.00 0.00 0.00 86 1013.0
20260502065231 53 0 0.0 0.0 0.00 0.00 0.00 87 1013.0
20260502064732 53 0 0.0 0.0 0.00 0.00 0.00 86 1013.0
20260502064231 53 292 0.0 2.0 0.00 0.00 0.00 86 1013.0
20260502063732 53 289 0.0 0.0 0.00 0.00 0.00 87 1013.0
20260502063231 53 0 0.0 0.0 0.00 0.00 0.00 86 1013.0
20260502062732 53 0 0.0 0.0 0.00 0.00 0.00 86 1013.0
20260502062232 53 275 3.0 4.0 0.00 0.00 0.00 85 1013.0
20260502061731 53 268 1.0 2.0 0.00 0.00 0.00 86 1013.0
20260502061231 53 0 0.0 0.0 0.00 0.00 0.00 86 1013.0
20260502060731 53 256 1.0 2.0 0.00 0.00 0.00 86 1013.0
20260502060231 53 248 1.0 3.0 0.00 0.00 0.00 86 1012.0
20260502055731 53 261 0.0 1.0 0.00 0.00 0.00 86 1012.0
20260502055232 53 0 0.0 0.0 0.00 0.00 0.00 87 1013.0
20260502054731 53 0 0.0 0.0 0.00 0.00 0.00 87 1013.0
20260502054231 53 0 0.0 0.0 0.00 0.00 0.00 87 1013.0
20260502053731 53 0 0.0 0.0 0.00 0.00 0.00 87 1013.0
20260502053231 53 0 0.0 0.0 0.00 0.00 0.00 87 1013.0
20260502052732 53 239 0.0 1.0 0.00 0.00 0.00 87 1013.0
20260502052232 53 0 0.0 0.0 0.00 0.00 0.00 86 1013.0
20260502051732 53 0 0.0 0.0 0.00 0.00 0.00 87 1013.0
20260502051235 53 0 0.0 0.0 0.00 0.00 0.00 86 1013.0
20260502050731 53 0 0.0 0.0 0.00 0.00 0.00 86 1013.0
20260502050232 54 0 0.0 0.0 0.00 0.00 0.00 86 1013.0
20260502045731 54 0 0.0 0.0 0.00 0.00 0.00 85 1013.0
20260502045233 54 246 2.0 2.0 0.00 0.00 0.00 85 1013.0
20260502044731 54 290 0.0 2.0 0.00 0.00 0.00 85 1013.0
20260502044233 54 250 0.0 2.0 0.00 0.00 0.00 85 1013.0
20260502043732 54 255 2.0 3.0 0.00 0.00 0.00 85 1013.0
20260502043232 54 283 0.0 3.0 0.00 0.00 0.00 85 1013.0
20260502042732 54 258 1.0 3.0 0.00 0.00 0.00 85 1013.0
20260502042232 54 269 2.0 4.0 0.00 0.00 0.00 85 1013.0
20260502041731 54 256 0.0 2.0 0.00 0.00 0.00 86 1013.0
20260502041231 54 276 1.0 3.0 0.00 0.00 0.00 86 1013.0
20260502040731 54 0 0.0 0.0 0.00 0.00 0.00 86 1013.0
20260502040231 54 0 0.0 0.0 0.00 0.00 0.00 86 1013.0
20260502035732 54 271 1.0 2.0 0.00 0.00 0.00 86 1013.0
20260502035231 54 273 0.0 2.0 0.00 0.00 0.00 85 1013.0
20260502034731 54 251 1.0 2.0 0.00 0.00 0.00 85 1014.0
20260502034240 54 284 4.0 5.0 0.00 0.00 0.00 85 1014.0
20260502033732 54 283 2.0 3.0 0.00 0.00 0.00 85 1014.0
20260502033232 54 236 0.0 2.0 0.00 0.00 0.00 84 1014.0
20260502032731 54 295 0.0 2.0 0.00 0.00 0.00 84 1013.0
20260502032232 54 263 0.0 2.0 0.00 0.00 0.00 84 1013.0
20260502031732 54 271 2.0 4.0 0.00 0.00 0.00 84 1013.0
20260502031233 54 290 2.0 3.0 0.00 0.00 0.00 83 1013.0
20260502030735 54 268 2.0 4.0 0.00 0.00 0.00 83 1013.0
20260502030231 54 268 2.0 4.0 0.00 0.00 0.00 83 1014.0
20260502025732 54 300 0.0 2.0 0.00 0.00 0.00 82 1014.0
20260502025232 54 209 0.0 1.0 0.00 0.00 0.00 82 1014.0
20260502024731 54 244 0.0 2.0 0.00 0.00 0.00 82 1014.0
20260502024231 55 266 0.0 2.0 0.00 0.00 0.00 81 1014.0
20260502023731 55 293 1.0 3.0 0.00 0.00 0.00 81 1014.0
20260502023232 55 282 4.0 6.0 0.00 0.00 0.00 81 1014.0
20260502022732 55 279 3.0 4.0 0.00 0.00 0.00 80 1013.0
20260502022231 55 276 1.0 3.0 0.00 0.00 0.00 80 1014.0
20260502021732 55 284 3.0 4.0 0.00 0.00 0.00 80 1014.0
20260502021231 55 292 2.0 4.0 0.00 0.00 0.00 79 1014.0
20260502020732 55 262 0.0 2.0 0.00 0.00 0.00 79 1014.0
20260502020231 55 272 3.0 4.0 0.00 0.00 0.00 78 1014.0
20260502015732 55 259 1.0 3.0 0.00 0.00 0.00 78 1014.0
20260502015232 55 270 2.0 4.0 0.00 0.00 0.00 77 1014.0
20260502014732 55 295 2.0 3.0 0.00 0.00 0.00 76 1014.0
20260502014233 55 244 0.0 1.0 0.00 0.00 0.00 76 1013.0
20260502013732 56 294 2.0 3.0 0.00 0.00 0.00 75 1013.0
20260502013231 56 258 0.0 2.0 0.00 0.00 0.00 75 1014.0
20260502012731 56 265 2.0 3.0 0.00 0.00 0.00 74 1014.0
20260502012231 56 244 1.0 2.0 0.00 0.00 0.00 74 1014.0
20260502011732 56 254 0.0 2.0 0.00 0.00 0.00 74 1013.0
20260502011231 56 262 2.0 4.0 0.00 0.00 0.00 73 1014.0
20260502010731 56 294 2.0 3.0 0.00 0.00 0.00 73 1013.0
20260502010232 56 257 2.0 3.0 0.00 0.00 0.00 72 1013.0
20260502005731 56 277 0.0 2.0 0.00 0.00 0.00 72 1013.0
20260502005231 56 260 2.0 3.0 0.00 0.00 0.00 72 1013.0
20260502004732 56 0 0.0 0.0 0.00 0.00 0.00 72 1013.0
20260502004231 56 264 0.0 2.0 0.00 0.00 0.00 71 1013.0
20260502003731 57 289 0.0 2.0 0.00 0.00 0.00 71 1013.0
20260502003232 57 7 0.0 4.0 0.00 0.00 0.00 71 1013.0
20260502002731 57 288 2.0 3.0 0.00 0.00 0.00 71 1013.0
20260502002231 57 247 0.0 1.0 0.00 0.00 0.00 71 1013.0
20260502001733 57 61 0.0 1.0 0.00 0.00 0.00 71 1013.0
20260502001231 57 350 0.0 2.0 0.00 0.00 0.00 71 1013.0
20260502000732 58 286 1.0 2.0 0.00 0.00 0.00 70 1013.0
20260502000233 58 255 1.0 2.0 0.00 0.00 0.00 71 1013.0
20260501235732 58 270 1.0 2.0 0.00 0.00 0.00 70 1013.0
20260501235231 59 228 0.0 2.0 0.00 0.00 0.00 69 1013.0
20260501234735 59 242 1.0 3.0 0.00 0.00 0.00 69 1013.0
20260501234231 59 212 1.0 2.0 0.00 0.00 0.00 68 1013.0
20260501233731 59 170 1.0 4.0 0.00 0.00 0.00 68 1013.0
20260501233232 59 235 2.0 3.0 0.00 0.00 0.00 67 1013.0
20260501232732 60 232 3.0 5.0 0.00 0.00 0.00 66 1013.0
20260501232232 60 229 1.0 2.0 0.00 0.00 0.00 66 1013.0
20260501231731 60 228 2.0 3.0 0.00 0.00 0.00 67 1013.0
20260501231231 60 230 2.0 3.0 0.00 0.00 0.00 66 1013.0
20260501230732 60 233 4.0 4.0 0.00 0.00 0.00 66 1013.0
20260501230232 60 229 2.0 3.0 0.00 0.00 0.00 65 1013.0
20260501225731 61 228 3.0 4.0 0.00 0.00 0.00 64 1013.0
20260501225232 61 229 3.0 5.0 0.00 0.00 0.00 64 1013.0
20260501224732 61 228 2.0 4.0 0.00 0.00 0.00 63 1013.0
20260501224231 61 230 2.0 4.0 0.00 0.00 0.00 63 1013.0
20260501223732 61 229 2.0 4.0 0.00 0.00 0.00 64 1013.0
20260501223231 61 229 3.0 4.0 0.00 0.00 0.00 62 1013.0
20260501222732 62 230 2.0 4.0 0.00 0.00 0.00 61 1013.0
20260501222231 62 257 2.0 3.0 0.00 0.00 0.00 60 1013.0
20260501221732 62 37 0.0 3.0 0.00 0.00 0.00 61 1013.0
20260501221232 62 292 2.0 3.0 0.00 0.00 0.00 62 1013.0
20260501220731 62 30 4.0 6.0 0.00 0.00 0.00 60 1013.0
20260501220231 62 348 1.0 3.0 0.00 0.00 0.00 60 1013.0
20260501215731 63 134 3.0 6.0 0.00 0.00 0.00 59 1013.0
20260501215232 63 236 3.0 5.0 0.00 0.00 0.00 58 1013.0
20260501214731 63 24 3.0 4.0 0.00 0.00 0.00 57 1013.0
20260501214232 64 351 2.0 3.0 0.00 0.00 0.00 57 1013.0
20260501213731 64 274 4.0 7.0 0.00 0.00 0.00 57 1013.0
20260501213232 63 289 3.0 6.0 0.00 0.00 0.00 57 1013.0
20260501212732 64 245 2.0 4.0 0.00 0.00 0.00 56 1013.0
20260501212231 63 191 1.0 2.0 0.00 0.00 0.00 57 1013.0
20260501211731 64 282 4.0 8.0 0.00 0.00 0.00 56 1013.0
20260501211232 64 267 3.0 4.0 0.00 0.00 0.00 55 1013.0
20260501210734 64 242 2.0 9.0 0.00 0.00 0.00 55 1013.0
20260501210232 64 277 6.0 12.0 0.00 0.00 0.00 55 1013.0
20260501205732 64 292 4.0 7.0 0.00 0.00 0.00 55 1013.0
20260501205231 65 294 5.0 10.0 0.00 0.00 0.00 54 1013.0
20260501204731 65 284 4.0 9.0 0.00 0.00 0.00 53 1013.0
20260501204232 66 270 2.0 3.0 0.00 0.00 0.00 50 1013.0
20260501203732 66 182 2.0 3.0 0.00 0.00 0.00 49 1013.0
20260501203231 67 33 2.0 5.0 0.00 0.00 0.00 47 1013.0
20260501202732 66 19 2.0 5.0 0.00 0.00 0.00 48 1013.0
20260501202233 66 270 4.0 7.0 0.00 0.00 0.00 48 1013.0
20260501201732 66 351 2.0 5.0 0.00 0.00 0.00 48 1013.0
20260501201231 66 255 1.0 3.0 0.00 0.00 0.00 48 1013.0
20260501200731 67 268 6.0 12.0 0.00 0.00 0.00 47 1013.0
20260501200233 67 248 3.0 6.0 0.00 0.00 0.00 47 1013.0
20260501195731 67 319 3.0 8.0 0.00 0.00 0.00 47 1013.0
20260501195232 67 268 4.0 6.0 0.00 0.00 0.00 46 1013.0
20260501194731 67 271 2.0 4.0 0.00 0.00 0.00 46 1013.0
20260501194232 67 321 2.0 4.0 0.00 0.00 0.00 45 1014.0
20260501193732 67 311 4.0 5.0 0.00 0.00 0.00 46 1014.0
20260501193232 67 13 3.0 8.0 0.00 0.00 0.00 45 1014.0
20260501192732 67 94 1.0 3.0 0.00 0.00 0.00 45 1014.0
20260501192232 66 278 5.0 9.0 0.00 0.00 0.00 45 1014.0
20260501191732 66 231 3.0 4.0 0.00 0.00 0.00 45 1014.0
20260501191231 67 294 5.0 8.0 0.00 0.00 0.00 44 1014.0
20260501190732 68 30 1.0 3.0 0.00 0.00 0.00 43 1014.0
20260501190231 68 224 2.0 5.0 0.00 0.00 0.00 43 1014.0
20260501185734 68 306 2.0 4.0 0.00 0.00 0.00 42 1014.0
20260501185232 68 62 3.0 6.0 0.00 0.00 0.00 40 1014.0
20260501184731 68 358 3.0 6.0 0.00 0.00 0.00 42 1014.0
20260501184232 68 315 2.0 7.0 0.00 0.00 0.00 42 1014.0
20260501183731 67 219 3.0 5.0 0.00 0.00 0.00 42 1014.0
20260501183231 66 357 1.0 4.0 0.00 0.00 0.00 42 1014.0
20260501182732 66 273 6.0 7.0 0.00 0.00 0.00 43 1015.0
20260501182231 65 281 4.0 6.0 0.00 0.00 0.00 43 1015.0
20260501181731 65 63 5.0 10.0 0.00 0.00 0.00 45 1015.0
20260501181231 65 30 1.0 4.0 0.00 0.00 0.00 46 1015.0
20260501180731 66 64 3.0 5.0 0.00 0.00 0.00 45 1015.0
20260501180234 66 38 4.0 8.0 0.00 0.00 0.00 43 1015.0
20260501175731 65 58 1.0 5.0 0.00 0.00 0.00 45 1015.0
20260501175238 65 48 6.0 12.0 0.00 0.00 0.00 46 1015.0
20260501174732 66 49 5.0 8.0 0.00 0.00 0.00 45 1015.0
20260501174233 67 162 1.0 6.0 0.00 0.00 0.00 43 1015.0
20260501173731 66 278 3.0 6.0 0.00 0.00 0.00 43 1015.0
20260501173231 65 242 3.0 5.0 0.00 0.00 0.00 46 1015.0
20260501172732 65 192 4.0 7.0 0.00 0.00 0.00 47 1015.0
20260501172232 66 262 3.0 5.0 0.00 0.00 0.00 45 1015.0